Simultaneous Nadir Overpasses (SNOs) Predictions

Prediction of SNOs over PacNW region [( 10.00, 139.50) to ( 22.70, 165.60)] between NOAA-19 and NPP Satellites:

Table of predicted SNOs over PacNW region for the next 30.0 days since TLE Epoch: 11/22/2013
Index Date (NOAA-19) Time (NOAA-19) NOAA-19 Lat,Lon Date (NPP) Time (NPP) NPP Lat,Lon Distance(km) Time Diff (sec)
1 11/24/2013 03:24:51 16.36, 151.97 11/24/2013 03:26:39 15.31, 147.58 484.74 108
2 11/24/2013 16:01:32 14.44, 147.73 11/24/2013 15:59:10 15.20, 144.24 384.95 142
3 12/06/2013 15:28:53 22.61, 157.42 12/06/2013 15:31:44 23.74, 152.63 505.59 171
4 12/07/2013 02:45:16 22.70, 160.86 12/07/2013 02:44:31 21.95, 157.03 402.98 45
5 12/19/2013 03:53:14 10.06, 146.12 12/19/2013 03:56:50 7.58, 141.37 590.55 216
6 12/19/2013 14:50:06 13.07, 165.58 12/19/2013 14:50:23 14.04, 161.36 468.93 17
7 12/19/2013
